This is the latest recevied weather packets stored in our database for station/object KF8LO-1. If no packets are shown the sender has not sent any weather packets the latest 1 day(s).
| Time | Temp. | Humidity | Pressure | Rain* | Wind** | Luminosity | Snow |
|---|---|---|---|---|---|---|---|
| 1778011927 | 20.56° C | 31% | 0 hPa | 0 mm | 5.36 m/s, 262° | - | - |
| 1778011624 | 20.56° C | 32% | 0 hPa | 0 mm | 3.13 m/s, 307° | - | - |
| 1778011324 | 20.56° C | 31% | 0 hPa | 0 mm | 3.13 m/s, 310° | - | - |
| 1778011024 | 20.56° C | 31% | 0 hPa | 0 mm | 5.81 m/s, 302° | - | - |
| 1778010724 | 20.56° C | 32% | 0 hPa | 0 mm | 2.24 m/s, 244° | - | - |
| 1778010424 | 20.56° C | 31% | 0 hPa | 0 mm | 4.02 m/s, 292° | - | - |
| 1778010124 | 20.56° C | 31% | 0 hPa | 0 mm | 4.92 m/s, 300° | - | - |
| 1778009824 | 21.11° C | 32% | 0 hPa | 0 mm | 3.58 m/s, 264° | - | - |
| 1778009524 | 21.11° C | 33% | 0 hPa | 0 mm | 4.02 m/s, 291° | - | - |
| 1778009224 | 21.11° C | 31% | 0 hPa | 0 mm | 3.58 m/s, 300° | - | - |
| 1778008924 | 21.11° C | 33% | 0 hPa | 0 mm | 3.58 m/s, 307° | - | - |
| 1778008624 | 21.11° C | 32% | 0 hPa | 0 mm | 1.34 m/s, 302° | - | - |
| 1778008324 | 21.11° C | 31% | 0 hPa | 0 mm | 4.02 m/s, 300° | - | - |
| 1778008024 | 21.11° C | 34% | 0 hPa | 0 mm | 4.47 m/s, 306° | - | - |
| 1778007724 | 21.11° C | 33% | 0 hPa | 0 mm | 3.13 m/s, 289° | - | - |
| 1778007424 | 21.11° C | 32% | 0 hPa | 0 mm | 3.58 m/s, 299° | - | - |
| 1778007124 | 20.56° C | 32% | 0 hPa | 0 mm | 2.68 m/s, 281° | - | - |
| 1778006824 | 20.56° C | 32% | 0 hPa | 0 mm | 3.58 m/s, 236° | - | - |
| 1778006524 | 20.56° C | 34% | 0 hPa | 0 mm | 0.89 m/s, 178° | - | - |
| 1778006224 | 20.56° C | 35% | 0 hPa | 0 mm | 2.24 m/s, 265° | - | - |
| 1778005924 | 20.56° C | 35% | 0 hPa | 0 mm | 0.45 m/s, 171° | - | - |
| 1778005624 | 20.56° C | 35% | 0 hPa | 0 mm | 1.79 m/s, 293° | - | - |
| 1778005324 | 20° C | 35% | 0 hPa | 0 mm | 5.36 m/s, 272° | - | - |
| 1778005024 | 20° C | 34% | 0 hPa | 0 mm | 6.71 m/s, 268° | - | - |
| 1778004724 | 20° C | 35% | 0 hPa | 0 mm | 4.92 m/s, 258° | - | - |
* Rain latest hour (hover to see other rain measurements)
** Current wind speed in m/s (hover to see current wind gust speed)